Location: Unspecified
(35.7250°N, 0.0000°E)
Time: 18:56:38
(UTC+00:00)

Courier 1B Rocket - Pass Details

Date: 22 August 2020
Orbit: 920 x 1202 km, 28.2° (Epoch: 01 October)

Event Time Altitude Azimuth Distance (km) Brightness Sun altitude
Rises 21:10:02 0° 232° (SW) 3,831 8.2 -27.7°
Reaches altitude 10° 21:13:10 10° 222° (SW) 2,829 7.4 -28.2°
Enters shadow 21:15:07 18° 211° (SSW) 2,280 6.8 -28.5°
